This is the latest recevied weather packets stored in our database for station/object ON6OO-13. If no packets are shown the sender has not sent any weather packets the latest 10 day(s).
| Time | Temp. | Humidity | Pressure | Rain* | Wind** | Luminosity | Snow |
|---|---|---|---|---|---|---|---|
| 1777470230 | 18.89° C | 31% | 1015.5 hPa | 0 mm | - | - | - |
| 1777469318 | 18.89° C | 31% | 1015.9 hPa | 0 mm | - | - | - |
| 1777468406 | 18.89° C | 31% | 1015.9 hPa | 0 mm | - | - | - |
| 1777467494 | 18.33° C | 32% | 1015.5 hPa | 0 mm | - | - | - |
| 1777466582 | 18.33° C | 35% | 1015.5 hPa | 0 mm | - | - | - |
| 1777465670 | 17.78° C | 34% | 1015.9 hPa | 0 mm | - | - | - |
| 1777464757 | 17.78° C | 34% | 1015.9 hPa | 0 mm | - | - | - |
| 1777463846 | 17.78° C | 34% | 1016.2 hPa | 0 mm | - | - | - |
| 1777462933 | 17.22° C | 33% | 1016.2 hPa | 0 mm | - | - | - |
| 1777462022 | 16.67° C | 35% | 1016.2 hPa | 0 mm | - | - | - |
| 1777461110 | 16.67° C | 36% | 1016.2 hPa | 0 mm | - | - | - |
| 1777460198 | 16.11° C | 35% | 1016.5 hPa | 0 mm | - | - | - |
| 1777459286 | 16.11° C | 37% | 1016.2 hPa | 0 mm | - | - | - |
| 1777458374 | 15.56° C | 37% | 1016.2 hPa | 0 mm | - | - | - |
| 1777457462 | 15.56° C | 37% | 1016.5 hPa | 0 mm | - | - | - |
| 1777456549 | 15° C | 38% | 1016.5 hPa | 0 mm | - | - | - |
| 1777455637 | 15° C | 39% | 1016.5 hPa | 0 mm | - | - | - |
| 1777454726 | 15° C | 38% | 1016.5 hPa | 0 mm | - | - | - |
| 1777453813 | 14.44° C | 39% | 1016.5 hPa | 0 mm | - | - | - |
| 1777452901 | 13.89° C | 39% | 1016.9 hPa | 0 mm | - | - | - |
| 1777451989 | 13.33° C | 42% | 1016.9 hPa | 0 mm | - | - | - |
| 1777451077 | 12.78° C | 44% | 1017.2 hPa | 0 mm | - | - | - |
| 1777450165 | 12.78° C | 45% | 1016.9 hPa | 0 mm | - | - | - |
| 1777449254 | 12.22° C | 46% | 1017.2 hPa | 0 mm | - | - | - |
| 1777448342 | 11.67° C | 48% | 1017.2 hPa | 0 mm | - | - | - |
* Rain latest hour (hover to see other rain measurements)
** Current wind speed in m/s (hover to see current wind gust speed)